WetterOnline ( https://www.wetteronline.de )

Wetter aktuell Alsfeld

Aktuelles Wetter: Hoherodskopf/Vogelsberg (743m)

6-stündlich | Neueste Meldungen
Ortszeit Temperatur Wetter
So, 02.10. 2:00 8.3° C Nebel
Sa, 01.10. 20:00 9.1° C leicht bewölkt
Sa, 01.10. 14:00 7.6° C leichter Regen
Sa, 01.10. 8:00 5.7° C Regen
Sa, 01.10. 2:00 5.8° C wolkig
Fr, 30.09. 20:00 7.9° C wolkenlos
Fr, 30.09. 14:00 9.2° C wolkig
Fr, 30.09. 8:00 5.7° C wolkenlos
Ortszeit Temperatur Wetter
So, 02.10. 7:30 8.9° C Nebel
So, 02.10. 7:20 8.9° C Nebel
So, 02.10. 7:10 8.9° C Nebel
So, 02.10. 7:00 8.9° C Nebel
So, 02.10. 6:50 8.9° C Nebel
So, 02.10. 6:40 8.9° C Nebel
So, 02.10. 6:30 8.9° C Nebel
So, 02.10. 6:00 8.9° C Nebel
So, 02.10. 5:30 8.9° C Nebel
So, 02.10. 5:00 8.7° C Nebel
So, 02.10. 4:30 8.7° C Nebel
Ortszeit Relative Feuchte Sichtweite
So, 02.10. 2:00 100% <100 m
Sa, 01.10. 20:00 95% 30 km
Sa, 01.10. 14:00 100% <100 m
Sa, 01.10. 8:00 100% <100 m
Sa, 01.10. 2:00 97% 13 km
Fr, 30.09. 20:00 79% 50 km
Fr, 30.09. 14:00 76% 50 km
Fr, 30.09. 8:00 89% 30 km
Ortszeit Relative Feuchte Sichtweite
So, 02.10. 7:30 100% <100 m
So, 02.10. 7:20 100% -
So, 02.10. 7:10 100% -
So, 02.10. 7:00 100% <100 m
So, 02.10. 6:50 100% -
So, 02.10. 6:40 100% -
So, 02.10. 6:30 100% <100 m
So, 02.10. 6:00 100% <100 m
So, 02.10. 5:30 100% <100 m
So, 02.10. 5:00 100% <100 m
So, 02.10. 4:30 100% <100 m
Ortszeit Niederschlagsmenge Niederschlagsart
So, 02.10. 2:00 0.0 l/m2 in 6 Std. -
Sa, 01.10. 20:00 18 l/m2 in 12 Std. Regen
Sa, 01.10. 14:00 10 l/m2 in 6 Std. Regen, Niederschlag
Sa, 01.10. 8:00 4 l/m2 in 12 Std. Regen, Niederschlag
Sa, 01.10. 2:00 0.0 l/m2 in 6 Std. -
Fr, 30.09. 20:00 0.0 l/m2 in 12 Std. -
Fr, 30.09. 14:00 0.0 l/m2 in 6 Std. -
Fr, 30.09. 8:00 0.0 l/m2 in 12 Std. -
Ortszeit Niederschlagsmenge Niederschlagsart
So, 02.10. 7:30 <0.05 l/m2 in 1 Std. -
So, 02.10. 7:20 keine Meldung -
So, 02.10. 7:10 keine Meldung -
So, 02.10. 7:00 <0.05 l/m2 in 1 Std. Regen
So, 02.10. 6:50 keine Meldung -
So, 02.10. 6:40 keine Meldung -
So, 02.10. 6:30 <0.05 l/m2 in 1 Std. -
So, 02.10. 6:00 0.0 l/m2 in 1 Std. -
So, 02.10. 5:30 0.0 l/m2 in 1 Std. -
So, 02.10. 5:00 <0.05 l/m2 in 1 Std. Regen
So, 02.10. 4:30 0.0 l/m2 in 1 Std. -
Ortszeit Stärke Spitze Richtung
km/h Bft. km/h Grad Sektor
So, 02.10. 2:00 19 3 43 260° W
Sa, 01.10. 20:00 28 4 54 300° NW
Sa, 01.10. 14:00 29 5 58 220° SW
Sa, 01.10. 8:00 33 5 50 200° S
Sa, 01.10. 2:00 24 4 41 200° S
Fr, 30.09. 20:00 15 3 26 190° S
Fr, 30.09. 14:00 7 2 22 270° W
Fr, 30.09. 8:00 4 1 7 200° S
Ortszeit Stärke Spitze Richtung
km/h Bft. km/h Grad Sektor
So, 02.10. 7:30 24 4 37 240° SW
So, 02.10. 7:20 24 4 - 240° SW
So, 02.10. 7:10 24 4 - 240° SW
So, 02.10. 7:00 22 4 36 240° SW
So, 02.10. 6:50 22 4 - 240° SW
So, 02.10. 6:40 22 4 - 250° W
So, 02.10. 6:30 22 4 36 240° SW
So, 02.10. 6:00 22 4 36 230° SW
So, 02.10. 5:30 22 4 36 230° SW
So, 02.10. 5:00 22 4 32 240° SW
So, 02.10. 4:30 20 4 31 240° SW
Ortszeit Untergrenze Bedeckung Gattung
total tief tief mittel hoch
So, 02.10. 2:00 <30 m 8/8 0/8 - - -
Sa, 01.10. 20:00 600 m 4/8 3/8 - - -
Sa, 01.10. 14:00 <30 m 8/8 0/8 - - -
Sa, 01.10. 8:00 <30 m 8/8 0/8 - - -
Sa, 01.10. 2:00 7200 m 8/8 0/8 - - -
Fr, 30.09. 20:00 - 0/8 0/8 - - -
Fr, 30.09. 14:00 660 m 6/8 6/8 - - -
Fr, 30.09. 8:00 - 0/8 0/8 - - -
Ortszeit Bedeckungsgrad in Achtel und Wolkenuntergrenze
So, 02.10. 7:30 8(<30m)
So, 02.10. 7:20 8(<30m)
So, 02.10. 7:10 8
So, 02.10. 7:00 8(<30m)
So, 02.10. 6:50 8(<30m)
So, 02.10. 6:40 8
So, 02.10. 6:30 8(<30m)
So, 02.10. 6:00 8(<30m)
So, 02.10. 5:30 8(<30m)
So, 02.10. 5:00 8(<30m)
So, 02.10. 4:30 8(<30m)
Ortszeit Luftdruck NN (hPa) Tendenz (hPa in 3 Std.)
So, 02.10. 2:00 1017 + 2,0
Sa, 01.10. 20:00 1011 + 2,0
Sa, 01.10. 14:00 1008 + 0,5
Sa, 01.10. 8:00 1009 - 1,2
Sa, 01.10. 2:00 1012 - 0,7
Fr, 30.09. 20:00 1012 0,0
Fr, 30.09. 14:00 1012 + 0,3
Fr, 30.09. 8:00 1011 + 1,4
Ortszeit Luftdruck NN (hPa) Tendenz (hPa in 3 Std.)
So, 02.10. 7:30 1017 + 0,2
So, 02.10. 7:20 1017 keine Meldung
So, 02.10. 7:10 1017 keine Meldung
So, 02.10. 7:00 1017 - 0,1
So, 02.10. 6:50 1017 keine Meldung
So, 02.10. 6:40 1017 keine Meldung
So, 02.10. 6:30 1017 - 0,1
So, 02.10. 6:00 1017 0,0
So, 02.10. 5:30 1017 + 0,1
So, 02.10. 5:00 1017 0,0
So, 02.10. 4:30 1017 + 0,4
Ortszeit Schneehöhe (cm)
So, 02.10. 2:00 0
Sa, 01.10. 20:00 0
Sa, 01.10. 14:00 0
Sa, 01.10. 8:00 0
Sa, 01.10. 2:00 0
Fr, 30.09. 20:00 0
Fr, 30.09. 14:00 0
Fr, 30.09. 8:00 0
Ortszeit Schneehöhe (cm)
So, 02.10. 7:30 0
So, 02.10. 7:20 0
So, 02.10. 7:10 0
So, 02.10. 7:00 0
So, 02.10. 6:50 0
So, 02.10. 6:40 0
So, 02.10. 6:30 0
So, 02.10. 6:00 0
So, 02.10. 5:30 0
So, 02.10. 5:00 0
So, 02.10. 4:30 0
Link zu dieser Seite / Seite empfehlen

Das Wetter in ...